CW0230 Weather Reports


time (UTC)temp
F
wind
direction
speed
knots
gust
knots
rain 1hr
in
rain 24hr
in
rain mn
in
humidity
%
barometer
mb
20260505111505 61 329 4.3 7.8 0.00 0.04 0.00 63 1013.3
20260505111004 61 330 4.3 10.4 0.00 0.04 0.00 63 1013.3
20260505101004 57 25 2.6 7.0 0.00 0.04 0.00 70 1013.7
20260505100004 57 8 4.3 7.8 0.00 0.04 0.00 70 1013.7
20260505094504 57 350 3.5 7.8 0.00 0.04 0.00 73 1013.7
20260505092504 57 354 3.5 6.1 0.00 0.04 0.00 74 1013.8
20260505092005 57 6 1.7 6.1 0.00 0.04 0.00 74 1013.8
20260505090505 57 16 3.5 8.7 0.00 0.04 0.00 73 1013.7
20260505085004 57 355 4.3 8.7 0.00 0.04 0.00 74 1013.8
20260505084505 57 329 2.6 7.0 0.00 0.04 0.00 76 1013.8
20260505083504 57 328 4.3 7.0 0.00 0.04 0.00 77 1014.0
20260505082005 55 19 2.6 7.0 0.00 0.04 0.00 81 1014.0
20260505081505 55 349 4.3 7.0 0.00 0.04 0.00 82 1014.0
20260505081004 55 12 2.6 7.8 0.00 0.04 0.00 81 1014.0
20260505080505 55 356 2.6 7.8 0.00 0.04 0.00 82 1014.0
20260505080005 55 332 3.5 7.0 0.00 0.04 0.00 83 1014.0
20260505075504 55 339 4.3 7.0 0.00 0.04 0.00 85 1013.9
20260505075004 54 343 2.6 7.0 0.00 0.04 0.00 87 1014.0
20260505074504 54 347 3.5 7.0 0.00 0.04 0.00 88 1014.0
20260505073504 53 349 2.6 5.2 0.00 0.04 0.00 88 1013.9
20260505073005 53 20 2.6 6.1 0.00 0.04 0.00 90 1013.9
20260505072005 52 354 2.6 5.2 0.00 0.04 0.00 90 1014.0
20260505071504 52 341 2.6 6.1 0.00 0.04 0.00 91 1014.0
20260505070504 52 352 2.6 7.8 0.00 0.04 0.00 92 1013.9
20260505070005 52 22 2.6 7.8 0.00 0.04 0.00 92 1013.9
20260505065005 51 353 1.7 5.2 0.00 0.04 0.00 93 1014.1
20260505064005 51 350 2.6 6.1 0.00 0.04 0.00 93 1014.1
20260505063505 51 340 2.6 6.1 0.00 0.04 0.00 93 1014.1
20260505062504 51 357 1.7 4.3 0.00 0.04 0.00 93 1014.0
20260505060504 50 348 1.7 5.2 0.00 0.04 0.00 93 1013.8
20260505055505 50 337 2.6 5.2 0.00 0.04 0.00 94 1013.7
20260505055005 50 337 1.7 5.2 0.00 0.04 0.00 94 1013.7
20260505054504 50 344 2.6 5.2 0.00 0.04 0.00 94 1013.7
20260505053504 50 331 3.5 5.2 0.00 0.04 0.00 94 1013.8
20260505053004 50 329 1.7 5.2 0.00 0.04 0.00 93 1013.8
20260505051504 50 349 2.6 5.2 0.00 0.04 0.00 93 1013.6
20260505051005 50 354 2.6 5.2 0.00 0.04 0.00 93 1013.6
20260505035005 52 4 1.7 4.3 0.00 0.04 0.00 93 1013.7
20260505034504 52 4 0.9 2.6 0.00 0.04 0.00 92 1013.7
20260505033504 52 1 0.0 2.6 0.00 0.04 0.00 92 1013.7
20260505033004 52 354 1.7 2.6 0.00 0.04 0.00 92 1013.7
20260505032505 52 336 1.7 2.6 0.00 0.04 0.00 92 1013.7
20260505032004 52 334 2.6 2.6 0.00 0.04 0.00 92 1013.7
20260505025005 52 342 1.7 4.3 0.00 0.04 0.00 91 1013.7
20260505024005 53 339 2.6 4.3 0.00 0.04 0.00 91 1013.6
20260505023504 53 335 1.7 4.3 0.00 0.04 0.00 91 1013.7
20260505021005 54 338 1.7 2.6 0.00 0.04 0.00 90 1013.8
20260505020505 54 0 0.9 2.6 0.00 0.04 0.00 90 1013.8
20260505020005 54 355 0.9 1.7 0.00 0.04 0.00 89 1013.9
20260505015005 54 355 0.9 2.6 0.00 0.04 0.00 89 1014.0
20260505013505 54 38 0.9 2.6 0.00 0.04 0.00 89 1014.0
20260505013004 54 40 0.0 2.6 0.00 0.04 0.00 89 1014.1
20260505012505 54 24 0.9 2.6 0.00 0.04 0.00 89 1014.2
20260505005505 54 355 0.9 2.6 0.00 0.04 0.00 89 1014.2
20260505005005 54 337 1.7 2.6 0.00 0.04 0.00 89 1014.3
20260505004005 54 350 0.9 4.3 0.00 0.04 0.00 88 1014.4
20260505003504 54 342 1.7 4.3 0.00 0.04 0.00 88 1014.4
20260505003004 54 4 0.9 4.3 0.00 0.04 0.00 88 1014.3
20260505002505 54 18 1.7 4.3 0.00 0.04 0.00 88 1014.3
20260505001504 54 11 1.7 2.6 0.00 0.04 0.00 88 1014.3
20260505000004 54 43 0.9 2.6 0.00 0.04 0.00 89 1014.4
20260504233504 54 52 1.7 4.3 0.00 0.04 0.00 91 1014.5
20260504233005 54 35 0.9 2.6 0.00 0.04 0.00 91 1014.5
20260504231005 54 46 0.9 4.3 0.00 0.04 0.00 91 1014.4
20260504230505 54 5 1.7 4.3 0.00 0.04 0.00 91 1014.3
20260504230005 54 5 1.7 2.6 0.00 0.04 0.00 91 1014.3
20260504225505 54 12 0.9 2.6 0.00 0.04 0.04 91 1014.4
20260504224505 54 30 1.7 4.3 0.00 0.04 0.04 91 1014.4
20260504223505 55 335 1.7 4.3 0.00 0.04 0.04 91 1014.4
20260504222505 55 325 1.7 4.3 0.00 0.04 0.04 91 1014.5
20260504221004 55 325 2.6 4.3 0.00 0.04 0.04 91 1014.5
20260504220505 55 332 2.6 4.3 0.00 0.04 0.04 91 1014.5
20260504220004 55 345 1.7 4.3 0.00 0.04 0.04 91 1014.5
20260504215004 55 347 2.6 4.3 0.00 0.04 0.04 91 1014.6
20260504214504 55 341 2.6 5.2 0.00 0.04 0.04 91 1014.6
20260504214005 55 349 1.7 5.2 0.00 0.04 0.04 91 1014.6
20260504212504 55 344 2.6 5.2 0.00 0.04 0.04 91 1014.6
20260504212004 55 353 2.6 5.2 0.01 0.04 0.04 91 1014.6
20260504211005 55 344 2.6 7.0 0.01 0.04 0.04 91 1014.6
20260504210505 56 350 4.3 7.0 0.02 0.04 0.04 91 1014.7
20260504205505 56 344 3.5 6.1 0.02 0.04 0.04 91 1014.7
20260504204505 56 355 3.5 7.8 0.02 0.04 0.04 91 1014.7
20260504203505 56 348 1.7 2.6 0.02 0.04 0.04 91 1014.6
20260504203004 56 336 1.7 4.3 0.02 0.04 0.04 91 1014.5
20260504202005 56 331 1.7 2.6 0.01 0.03 0.03 91 1014.5
20260504200505 57 353 1.7 2.6 0.01 0.02 0.02 90 1014.4
20260504200005 57 352 1.7 2.6 0.01 0.02 0.02 89 1014.4
20260504195504 57 19 0.9 2.6 0.01 0.02 0.02 89 1014.4
20260504195005 57 6 1.7 4.3 0.01 0.02 0.02 89 1014.3
20260504194504 57 13 1.7 6.1 0.01 0.02 0.02 89 1014.3
20260504193005 57 17 0.0 1.7 0.01 0.02 0.02 89 1014.2
20260504192504 57 17 0.0 1.7 0.01 0.02 0.02 89 1014.2
20260504192005 57 17 0.9 1.7 0.01 0.02 0.02 89 1014.2
20260504190505 58 92 1.7 2.6 0.00 0.02 0.02 88 1014.0
20260504185004 58 62 1.7 4.3 0.00 0.02 0.02 87 1013.9
20260504183005 58 30 0.9 2.6 0.00 0.02 0.02 87 1013.9
20260504181504 58 39 1.7 5.2 0.00 0.02 0.02 87 1013.8
20260504180505 58 351 1.7 4.3 0.00 0.02 0.02 87 1013.7
20260504180005 58 350 1.7 4.3 0.00 0.02 0.02 87 1013.7
20260504175505 58 30 2.6 4.3 0.00 0.02 0.02 87 1013.7
20260504174504 58 17 1.7 7.0 0.00 0.02 0.02 86 1013.7
20260504172004 59 8 3.5 10.4 0.01 0.02 0.02 84 1013.5
20260504171505 59 46 3.5 12.2 0.01 0.02 0.02 83 1013.5
20260504141005 66 345 1.7 5.2 0.00 0.00 0.00 64 1013.3
20260504140504 67 347 2.6 5.2 0.00 0.00 0.00 63 1013.3
20260504130504 68 30 1.7 5.2 0.00 0.00 0.00 54 1013.5